Location: Newark
(59.4564°N, 26.6917°E)
Time: 05:45:26
(UTC+00:00)

SR - Pass Details

Date: 01 December 2019
Orbit: 573 x 882 km, 66.7° (Epoch: 12 December)

Event Time Altitude Azimuth Distance (km) Brightness Sun altitude
Rises 09:03:54 0° 166° (SSE) 3,286 ? 7.9°
Reaches altitude 10° 09:07:00 10° 147° (SSE) 2,414 ? 8.0°
Maximum altitude 09:10:36 18° 107° (ESE) 1,974 ? 8.1°
Drops below altitude 10° 09:14:21 10° 67° (ENE) 2,517 ? 8.2°
Sets 09:17:39 0° 49° (NE) 3,483 ? 8.2°
